Wind_Speed
4 4 3 3 2 1 1 2 5 4 5 5 3 5 5 4 4 3 0 4 6 3 4 6 6 6 6 5 4 5 4 5 4 4 4 3 3 2 3 3 3 3 3
5 6 3 2 1 2 0 1 1 2 2 2 2 6 2 2 3 3 2 2 5 6 3 3 6 5 6 5 5 4 4 5 5 5 4 5 5 5 4 4 4 4 5
6 4 2 2 3 4 2 0 3 5 3 1 3 6 5 5 4 2 4 3 3 7 6 4 3 5 6 6 5 5 5 5 4 5 6 5 6 6 6 5 5 5 5
6 3 1 1 3 2 2 1 1 3 4 1 3 3 1 1 5 6 5 4 4 1 5 5 5 4 4 6 7 7 7 7 6 6 5 5 5 6 7 7 7 8 8
7 5 4 4 3 5 1 1 2 3 2 2 0 1 1 1 4 6 6 5 3 4 3 3 4 3 3 3 5 8 9 10 10 9 6 8 6 6 6 6 8 8 8
11 9 7 7 2 1 3 1 3 2 2 2 1 4 4 5 5 5 5 4 1 4 5 2 3 2 2 0 2 5 6 8 10 10 10 10 9 9 9 8 8 8 9
12 11 9 8 5 1 1 1 2 2 2 3 6 6 4 6 5 5 5 5 5 4 2 2 2 3 2 2 1 1 5 6 7 7 6 7 8 10 9 10 10 10 11
14 12 11 9 6 4 3 1 0 1 1 2 4 4 7 7 5 4 3 3 5 4 3 3 2 3 3 1 2 2 3 3 3 4 4 3 4 5 6 7 9 12 13
17 13 13 10 10 5 4 4 2 1 1 2 7 2 3 5 7 5 4 3 3 3 3 4 5 4 5 4 4 3 3 3 3 2 1 1 2 3 4 5 7 8 11
18 16 13 11 12 7 8 5 4 4 2 3 4 6 5 2 5 7 5 6 5 3 3 2 2 3 4 3 5 4 5 7 6 5 4 4 5 4 3 3 4 5 7
20 17 16 14 13 9 10 9 7 5 5 6 4 4 5 6 6 5 6 7 7 8 6 5 3 2 3 3 2 4 4 4 3 3 6 8 7 6 5 5 5 5 6
19 23 19 20 17 14 12 9 9 9 8 8 8 7 5 5 6 7 7 6 7 8 9 8 8 7 7 7 7 7 4 3 2 2 5 7 7 6 6 6 6 7 7
19 20 24 25 20 17 15 13 12 12 12 11 9 8 8 7 7 8 7 5 6 8 7 9 10 11 11 11 10 11 10 9 8 7 7 8 9 9 9 9 10 11 11
19 18 20 22 22 20 18 17 14 13 15 15 13 13 9 8 8 7 6 6 5 7 8 8 8 9 11 11 12 16 14 15 13 13 13 12 12 12 11 11 13 14 15
20 20 20 21 21 21 21 19 15 16 17 17 16 15 14 10 10 9 9 8 8 8 7 7 7 8 7 8 11 11 11 14 14 16 17 16 15 15 15 15 15 16 18
28 23 23 23 23 23 24 23 19 20 20 20 19 20 18 14 13 12 11 10 10 9 9 7 6 9 7 7 8 10 9 13 14 15 16 17 18 18 18 19 19 19 18
35 31 30 25 25 25 26 27 24 21 23 23 23 23 23 21 16 14 14 12 12 12 12 9 9 11 11 10 9 9 10 11 11 15 16 18 19 20 20 19 21 21 21
38 35 33 31 30 28 27 30 29 25 28 27 27 27 25 22 24 22 16 17 14 14 13 12 11 10 10 12 12 15 10 10 12 15 18 18 21 21 19 18 18 18 18
40 38 36 36 34 33 33 33 33 32 31 30 29 29 27 26 25 21 22 18 15 15 14 13 11 10 11 11 11 11 12 11 13 16 18 17 18 19 19 18 19 18 18
43 41 41 39 37 35 36 37 37 36 35 34 33 32 30 29 27 25 25 24 19 16 14 14 14 15 13 12 12 13 15 14 15 12 17 15 15 19 18 17 18 19 20
45 44 43 42 40 38 37 42 43 41 40 38 36 36 34 32 29 27 26 25 22 20 17 17 17 16 16 15 16 13 14 14 14 15 12 10 13 12 16 19 20 19 17
47 46 47 47 45 43 40 42 44 46 45 42 40 38 35 34 33 31 28 26 26 26 26 21 19 19 18 17 16 15 14 14 14 8 11 11 11 15 16 17 20 22 26
48 48 49 50 50 48 47 44 45 47 46 45 45 42 34 31 35 34 32 30 30 30 27 23 24 21 18 18 17 15 15 14 13 13 13 14 12 16 17 16 20 22 23
49 49 49 52 51 51 50 48 44 44 47 43 42 44 42 36 36 35 34 34 34 34 30 32 26 22 21 18 18 15 14 15 14 13 13 13 13 15 15 14 19 22 24
39 43 40 47 53 53 51 49 47 46 47 51 50 48 46 44 41 39 34 31 32 34 31 30 30 26 24 22 19 13 14 11 12 12 12 13 12 13 14 16 14 18 21
34 33 37 44 51 54 53 51 49 49 49 48 49 51 51 50 45 43 38 37 32 32 28 24 28 30 28 25 24 20 15 13 13 13 13 12 13 13 15 14 12 17 15
Wind_Direction
175 148 160 147 143 252 326 32 55 29 114 76 69 44 50 106 89 80 27 37 53 91 167 183 163 192 195 190 180 180 190 198 201 216 223 229 236 247 269 282 273 286 300
192 182 192 192 257 304 310 40 57 72 102 17 56 55 55 98 62 58 140 62 62 62 84 166 193 187 194 193 208 200 189 198 218 229 237 239 238 254 272 278 275 284 302
216 207 179 198 294 266 295 50 346 355 348 255 137 87 79 83 38 70 127 136 42 52 58 100 168 202 196 216 204 218 222 225 230 239 232 250 248 255 271 274 278 275 291
222 241 299 224 262 16 282 255 313 350 358 282 143 62 61 85 85 84 124 132 144 116 23 74 106 141 188 215 220 220 214 232 236 238 247 241 255 259 269 275 281 282 281
219 235 239 256 309 354 54 251 25 10 43 65 85 79 177 73 119 93 102 108 119 135 161 29 74 99 134 173 204 220 229 236 243 243 259 268 265 278 282 283 282 287 291
236 248 242 248 269 302 338 309 38 1 78 13 114 123 106 127 116 103 88 96 96 163 176 144 2 320 325 279 227 220 222 233 246 254 246 251 263 264 267 271 278 283 286
240 246 237 256 268 264 241 321 24 51 41 52 112 115 102 122 137 123 101 90 79 129 174 232 156 179 322 76 71 200 231 240 248 258 257 248 250 246 248 251 257 268 271
234 238 231 236 247 254 307 312 175 99 26 158 150 153 140 142 142 158 147 114 108 93 88 97 125 146 139 198 272 221 221 228 241 252 256 256 254 252 256 261 264 260 266
230 234 244 220 237 239 279 314 282 187 303 161 173 174 160 180 161 180 171 166 149 120 115 88 103 119 135 158 113 109 124 136 134 115 80 21 303 293 279 265 266 266 263
225 236 241 243 247 236 235 267 254 214 181 205 193 215 208 150 220 159 209 212 205 203 185 125 104 132 114 126 129 129 123 114 103 89 64 42 26 11 347 308 282 269 267
226 225 233 242 244 234 248 226 264 240 225 193 209 209 221 224 239 252 198 206 223 222 233 215 214 229 177 154 152 99 124 124 116 59 24 15 5 358 354 357 349 333 319
230 230 228 237 242 237 239 245 251 248 222 216 204 206 204 204 225 221 233 240 235 222 231 239 240 231 232 232 210 231 236 224 267 329 350 337 340 339 351 349 341 333 326
224 229 231 233 233 240 244 247 252 243 237 233 222 214 218 218 220 220 231 238 236 233 243 243 248 239 235 234 241 250 253 259 273 289 297 313 318 319 305 312 321 322 319
226 224 228 223 224 234 238 247 246 240 231 230 232 215 219 223 220 217 216 228 232 235 237 233 247 242 243 242 242 255 254 255 263 267 271 280 292 298 304 301 302 304 306
223 220 219 221 220 224 235 244 237 242 228 229 231 227 219 223 222 221 224 224 236 254 250 243 243 248 237 248 255 273 263 250 267 269 271 278 285 282 282 289 296 300 300
225 220 221 222 220 225 234 237 235 237 234 230 225 230 225 219 226 224 227 231 234 245 265 249 254 237 231 236 262 265 248 260 268 270 271 272 276 281 282 282 285 290 292
235 228 234 230 225 225 229 234 231 225 235 232 231 231 232 227 222 229 229 230 232 233 243 250 244 259 259 257 246 245 253 263 274 281 272 270 276 271 274 276 282 288 292
236 236 233 234 231 227 225 231 232 229 236 234 234 235 235 233 235 226 228 230 232 233 233 244 246 249 264 259 246 255 256 269 264 271 278 288 284 281 282 286 286 285 287
231 233 231 231 231 228 228 231 233 234 238 239 236 238 238 234 238 231 236 233 235 233 241 235 250 253 245 241 257 267 257 270 269 274 284 284 286 287 286 286 288 290 292
229 228 230 230 231 232 231 231 233 234 237 239 238 237 238 237 238 240 239 241 232 231 236 236 242 243 244 244 246 252 265 277 278 271 283 288 280 291 287 286 283 289 294
234 229 229 231 231 233 230 232 233 233 236 239 239 238 236 238 241 241 239 240 235 239 236 244 244 246 244 242 246 261 267 275 281 285 284 294 285 291 299 299 308 304 292
236 234 230 230 231 230 230 233 233 234 235 238 240 241 235 239 241 243 242 241 247 243 239 237 246 247 247 244 245 251 261 272 279 276 272 286 273 285 288 293 280 276 283
237 233 230 230 231 232 234 236 234 233 235 238 242 242 237 235 242 244 243 242 243 247 242 237 236 244 250 246 241 244 259 256 269 283 293 283 285 286 287 287 287 287 290
236 235 231 229 231 233 236 238 239 239 239 238 241 243 242 240 243 243 247 245 240 243 242 235 234 240 245 240 244 251 248 258 275 282 270 283 290 287 286 288 293 295 297
229 233 232 234 233 234 236 237 238 238 239 241 242 244 244 245 243 247 248 246 242 245 248 242 240 239 243 241 240 236 251 254 267 263 264 276 288 287 291 296 297 295 307
228 226 228 234 236 236 237 239 237 237 239 240 243 244 247 246 246 246 242 243 239 244 236 237 230 234 241 239 243 244 246 254 256 266 268 257 286 294 297 293 292 303 305
Height
1591 1593 1593 1594 1594 1593 1593 1594 1594 1594 1594 1594 1594 1594 1593 1593 1593 1594 1593 1592 1592 1592 1592 1594 1595 1596 1596 1598 1598 1599 1600 1601 1602 1602 1603 1603 1604 1604 1604 1604 1603 1603 1603
1591 1592 1593 1594 1594 1594 1592 1593 1594 1594 1594 1594 1593 1594 1593 1593 1593 1594 1594 1593 1593 1593 1593 1593 1594 1595 1596 1597 1599 1599 1600 1601 1601 1602 1602 1602 1603 1603 1604 1604 1603 1603 1603
1589 1590 1591 1593 1594 1592 1592 1593 1592 1593 1593 1593 1593 1593 1593 1594 1594 1594 1595 1596 1594 1595 1594 1593 1594 1594 1596 1597 1598 1598 1599 1599 1600 1601 1601 1602 1602 1602 1603 1603 1603 1603 1603
1589 1590 1592 1593 1593 1591 1592 1593 1593 1593 1593 1592 1592 1593 1594 1594 1595 1595 1596 1597 1597 1597 1595 1595 1594 1594 1594 1595 1596 1597 1597 1598 1599 1600 1600 1600 1601 1601 1602 1603 1603 1603 1602
1588 1589 1591 1592 1591 1592 1592 1593 1593 1593 1593 1593 1592 1593 1594 1594 1594 1595 1597 1597 1597 1598 1598 1596 1595 1595 1595 1595 1595 1595 1596 1596 1597 1597 1598 1599 1600 1601 1601 1601 1601 1601 1602
1586 1587 1590 1589 1590 1592 1592 1593 1591 1592 1593 1592 1592 1593 1594 1594 1596 1596 1596 1597 1598 1597 1597 1598 1597 1594 1595 1594 1594 1594 1594 1594 1595 1595 1596 1596 1596 1597 1598 1599 1599 1599 1599
1584 1586 1588 1589 1588 1589 1590 1591 1592 1591 1593 1592 1593 1593 1595 1596 1597 1597 1598 1597 1598 1598 1598 1597 1598 1597 1596 1594 1594 1594 1594 1593 1592 1592 1592 1593 1592 1593 1593 1593 1593 1594 1595
1582 1583 1586 1588 1588 1589 1588 1589 1590 1592 1592 1592 1592 1592 1593 1596 1596 1597 1598 1599 1599 1598 1598 1597 1596 1596 1596 1595 1594 1593 1592 1592 1592 1591 1591 1591 1591 1591 1591 1591 1590 1589 1591
1580 1581 1583 1585 1587 1588 1589 1588 1589 1590 1592 1591 1591 1592 1592 1591 1593 1596 1597 1598 1599 1599 1599 1597 1597 1594 1594 1593 1592 1591 1591 1591 1592 1592 1591 1591 1591 1590 1590 1590 1590 1589 1589
1577 1579 1581 1583 1584 1587 1588 1588 1588 1589 1590 1591 1591 1592 1592 1591 1591 1592 1595 1596 1597 1598 1598 1599 1598 1596 1595 1595 1593 1593 1592 1593 1593 1593 1592 1592 1593 1592 1592 1591 1590 1590 1590
1573 1576 1578 1580 1581 1583 1585 1586 1586 1586 1588 1590 1591 1591 1591 1593 1594 1592 1590 1594 1595 1595 1596 1596 1597 1598 1597 1597 1596 1594 1593 1592 1591 1593 1595 1596 1594 1593 1592 1592 1592 1591 1590
1571 1572 1574 1576 1578 1580 1582 1583 1583 1584 1585 1587 1589 1589 1590 1591 1591 1592 1592 1592 1592 1593 1594 1595 1594 1595 1595 1594 1594 1592 1591 1590 1591 1590 1592 1590 1590 1590 1591 1591 1589 1589 1589
1567 1568 1569 1571 1574 1577 1579 1580 1581 1582 1583 1584 1585 1588 1589 1589 1589 1589 1590 1590 1591 1591 1592 1593 1593 1591 1591 1592 1592 1592 1591 1592 1593 1592 1591 1591 1592 1592 1590 1589 1590 1589 1588
1562 1564 1564 1566 1569 1572 1575 1576 1577 1579 1580 1581 1582 1583 1587 1587 1588 1588 1589 1590 1590 1589 1590 1590 1589 1590 1589 1590 1592 1589 1591 1590 1591 1591 1589 1588 1588 1589 1589 1588 1588 1587 1586
1556 1558 1560 1562 1565 1567 1570 1573 1575 1575 1576 1578 1579 1579 1581 1584 1584 1586 1586 1586 1587 1586 1586 1586 1588 1588 1589 1589 1587 1588 1589 1591 1590 1589 1589 1589 1589 1587 1586 1586 1585 1584 1583
1549 1553 1554 1556 1560 1563 1565 1567 1570 1571 1572 1573 1575 1575 1577 1580 1581 1582 1583 1583 1585 1586 1586 1585 1586 1585 1586 1587 1587 1587 1587 1586 1586 1587 1587 1587 1583 1584 1582 1580 1579 1577 1576
1542 1545 1548 1552 1555 1558 1559 1562 1565 1567 1567 1568 1570 1571 1572 1574 1577 1578 1579 1580 1581 1582 1583 1583 1584 1583 1583 1584 1584 1583 1583 1584 1584 1582 1582 1580 1580 1577 1577 1576 1573 1572 1571
1534 1538 1542 1544 1547 1551 1553 1555 1558 1560 1561 1562 1564 1566 1567 1569 1570 1571 1574 1575 1577 1579 1581 1581 1581 1581 1580 1579 1579 1578 1580 1581 1580 1577 1576 1577 1575 1573 1573 1572 1571 1570 1567
1524 1529 1533 1535 1538 1542 1545 1547 1551 1553 1555 1557 1558 1559 1561 1563 1564 1567 1568 1571 1572 1572 1574 1577 1579 1578 1577 1575 1576 1577 1577 1576 1574 1573 1571 1570 1569 1570 1568 1567 1566 1564 1564
1514 1519 1523 1527 1531 1534 1537 1540 1543 1545 1548 1549 1551 1553 1554 1555 1558 1561 1563 1565 1568 1571 1572 1573 1573 1572 1572 1574 1574 1574 1573 1572 1571 1570 1569 1566 1565 1564 1561 1561 1559 1557 1556
1504 1510 1514 1518 1522 1526 1528 1530 1533 1537 1539 1541 1543 1545 1547 1550 1552 1555 1557 1559 1562 1565 1569 1568 1568 1570 1570 1568 1568 1569 1569 1570 1568 1566 1563 1564 1562 1561 1560 1557 1554 1552 1550
1493 1499 1503 1507 1511 1514 1517 1521 1525 1528 1530 1533 1535 1538 1541 1543 1546 1548 1551 1554 1556 1557 1559 1564 1565 1564 1564 1565 1564 1564 1565 1565 1566 1562 1561 1560 1560 1558 1557 1557 1552 1550 1547
1482 1485 1491 1495 1498 1502 1505 1509 1512 1517 1520 1524 1527 1530 1533 1536 1538 1540 1543 1547 1548 1549 1552 1555 1556 1559 1559 1560 1560 1560 1560 1561 1561 1560 1558 1558 1556 1554 1553 1550 1545 1544 1542
1469 1474 1479 1483 1487 1490 1495 1501 1507 1512 1515 1517 1518 1521 1523 1527 1529 1532 1534 1537 1540 1541 1542 1544 1546 1549 1552 1556 1554 1555 1556 1556 1556 1556 1555 1554 1553 1550 1548 1546 1542 1538 1536
1462 1466 1473 1476 1478 1480 1484 1490 1497 1501 1503 1504 1506 1508 1511 1515 1519 1522 1527 1529 1529 1531 1533 1538 1541 1543 1544 1547 1550 1551 1552 1552 1552 1552 1549 1551 1549 1546 1545 1542 1539 1533 1530
1454 1459 1461 1463 1467 1471 1474 1478 1484 1489 1491 1494 1496 1498 1500 1502 1506 1510 1514 1516 1520 1525 1528 1528 1533 1536 1540 1541 1543 1544 1547 1547 1548 1547 1547 1548 1546 1543 1540 1537 1535 1532 1527